Overview Statistics Trail Chart Weather Telemetry Raw packets
 

This is the latest recevied weather packets stored in our database for station/object WA6ODQ-13. If no packets are shown the sender has not sent any weather packets the latest 10 day(s).

<< 4 5 6 7 8 9 10 >>
Time Temp. Humidity Pressure Rain* Wind** Luminosity Snow
1788633262 25° C 48% 1013 hPa 0 mm - 593 W/m² -
1788632957 24.44° C 47% 1013 hPa 0 mm - 586 W/m² -
1788632650 24.44° C 47% 1013 hPa 0 mm - 577 W/m² -
1788632346 23.89° C 48% 1013 hPa 0 mm - 568 W/m² -
1788632041 23.89° C 48% 1013.2 hPa 0 mm - 560 W/m² -
1788631740 23.89° C 50% 1013 hPa 0 mm - 550 W/m² -
1788631449 23.33° C 51% 1013.1 hPa 0 mm - 541 W/m² -
1788631129 22.78° C 52% 1013 hPa 0 mm - 531 W/m² -
1788630824 22.78° C 54% 1013 hPa 0 mm - 522 W/m² -
1788630519 21.67° C 56% 1013 hPa 0 mm - 511 W/m² -
1788630215 21.67° C 57% 1013.2 hPa 0 mm - 500 W/m² -
1788629911 21.11° C 60% 1013.1 hPa 0 mm - 490 W/m² -
1788629607 20.56° C 61% 1012.9 hPa 0 mm - 477 W/m² -
1788629307 20.56° C 62% 1012.9 hPa 0 mm - 469 W/m² -
1788629005 20.56° C 62% 1012.9 hPa 0 mm - 458 W/m² -
1788628701 20° C 64% 1012.9 hPa 0 mm - 445 W/m² -
1788628398 18.89° C 66% 1013.1 hPa 0 mm - 431 W/m² -
1788628094 19.44° C 66% 1013 hPa 0 mm - 419 W/m² -
1788627803 19.44° C 66% 1013.1 hPa 0 mm - 407 W/m² -
1788627488 19.44° C 66% 1012.9 hPa 0 mm - 394 W/m² -
1788627184 19.44° C 67% 1012.9 hPa 0 mm - 381 W/m² -
1788626878 18.89° C 69% 1013.1 hPa 0 mm - 368 W/m² -
1788626573 18.89° C 69% 1013.1 hPa 0 mm - 355 W/m² -
1788626268 18.33° C 71% 1012.9 hPa 0 mm - 343 W/m² -
1788625973 17.78° C 70% 1013.1 hPa 0 mm - 329 W/m² -

* Rain latest hour (hover to see other rain measurements)
** Current wind speed in m/s (hover to see current wind gust speed)